Погода в Кинешме

Россия / Ивановская область     57°26′33″N   42°10′08″E
темп.,
°C
ветер,
м/с
пор.,
м/с
влажн.,
%
обл.,
%
осадки,
мм/ч
давл.,
гПа
погр.,
м
16 октября, сб
сб1600:00+4юз41187100 0.0 1014416
03:00+5ююз51186100 0.0 1013638
06:00+5ююз51287100 0.0 1012591
09:00+6ююз61484100 0.0 1012662
12:00+8ююз61480100 0.0 1011741
15:00+8ююз71573100 0.0 1010903
18:00+9юз71469100 0.1 10091284
21:00+7юз61288100 1.6 10091453
17 октября, вс
вс1700:00+6зюз4108613 0.6 1010641
03:00+4юз411863 0.6 1010449
06:00+3ююз512895 0.0 1010435
09:00+5юз513835 0.0 1010652
12:00+7юз61073100 0.0 10101028
15:00+8юз61072100 0.0 10091213
18:00+7юз4979100 0.0 1009880
21:00+7юз498299 0.1 1009982
18 октября, пн
пн1800:00+6зюз4984100 0.4 1009696
03:00+4юз399399 0.4 1008309
06:00+4юз3988100 0.0 1007317
09:00+5ююз3890100 0.7 1006994
12:00+6юз4987100 1.6 10051016
15:00+5юз51092100 3.4 10031207
18:00+2з499799 2.5 1005472
21:00+1зюз411928 2.6 1006424
19 октября, вт
вт1900:00+1зюз399537 0.0 1007329
03:00+1з3795100 0.0 1007451
06:00+2з3896100 0.2 1008595
09:00+2з3897100 0.5 1009477
12:00+2сз3782100 0.1 1010909
15:00+3сз3783100 0.1 1011709
18:00+2зсз2687100 0.1 1013362
21:00+2сз3888100 0.2 1014425
20 октября, ср
ср2000:00−1сз3896100 0.0 1015265
03:00−2сз279661 0.0 1017191
06:00−2сз26945 0.0 1018186
09:000сз36805 0.0 1019394
12:00+2зсз45605 0.0 10201002
15:00+2зсз356198 0.0 10201110
18:00−1зюз228862 0.1 102041
21:00−1ююз3886100 0.1 1018300